Victoria, British Columbia

10:44 AM PST on February 26, 2017 (GMT -0800)
Victoria International

Weather History for CYYJ - December, 2012

Change the Weather History Date:

Thursday, December 6, 2012

  Actual Average Record
Temperature  
Mean Temperature 40 °F -  
Max Temperature 44 °F 44 °F 52 °F (2015)
Min Temperature 35 °F 33 °F 23 °F (2013)
Degree Days  
Heating Degree Days 26    
Moisture  
Dew Point 39 °F    
Average Humidity 91    
Maximum Humidity 100    
Minimum Humidity 81    
Precipitation  
Precipitation 0.08 in 0.20 in - ()
Sea Level Pressure  
Sea Level Pressure 30.07 in    
Wind  
Wind Speed 7 mph ()    
Max Wind Speed 13 mph    
Max Gust Speed 21 mph    
Visibility 15.3 miles    
Events Rain    
Averages and records for this station are not official NWS values.
T = Trace of Precipitation, MM = Missing Value Source: Averaged Metar Reports

Daily Weather History Graph

Daily Weather History Graph

Search for Another Location

Airport or City:

Trip Planner

Search our weather history database for the weather conditions in past years. The results will help you decide how hot, cold, wet, or windy it might be!

Date:

Astronomy

Dec. 06, 2012 Rise Set
Actual Time 7:51 AM PST 4:18 PM PST
Civil Twilight 7:15 AM PST 4:54 PM PST
Nautical Twilight 6:35 AM PST 5:34 PM PST
Astronomical Twilight 5:57 AM PST 6:12 PM PST
Moon No Moon Rise 12:17 PM PST (12/6)
Length of Visible Light 9h 39m
Length of Day
8h 26m
Waning Gibbous, 48% of the Moon is Illuminated
Dec 6
Waning Gibbous
Dec 13
New
Dec 19
First Quarter
Dec 28
Full
Jan 4
Last Quarter

Hourly Weather History & Observations

Time (PST) Temp. Windchill Dew Point Humidity Pressure Visibility Wind Dir Wind Speed Gust Speed Precip Events Conditions
12:00 AM 42.8 °F 40.1 °F 39.2 °F 87% 30.14 in 20.0 mi West 4.6 mph - N/A Rain Light Rain Showers
1:00 AM 42.8 °F 38.0 °F 37.4 °F 81% 30.14 in 15.0 mi SSW 8.1 mph - N/A   Overcast
1:12 AM 42.8 °F 38.6 °F - N/A% - 15.0 mi SSW 6.9 mph - N/A Rain Light Rain Showers
2:00 AM 42.8 °F 38.0 °F 39.2 °F 87% 30.13 in 15.0 mi South 8.1 mph - N/A Rain Light Rain
2:50 AM 42.8 °F 36.6 °F - N/A% - 15.0 mi South 11.5 mph - N/A   Overcast
3:00 AM 41.0 °F 33.9 °F 39.2 °F 93% 30.11 in 15.0 mi South 12.7 mph - N/A   Overcast
4:00 AM 42 °F - 40 °F 88% 30.09 in 15 mi SSE 10.4 mph - -   Partly Cloudy
4:00 AM 42.8 °F 37.0 °F 39.2 °F 87% 30.09 in 15.0 mi SSE 10.4 mph - N/A   Overcast
4:43 AM 42.8 °F 38.0 °F - N/A% - 15.0 mi SSE 8.1 mph - N/A Rain Light Rain
5:00 AM 42.8 °F 38.0 °F 39.2 °F 87% 30.08 in 15.0 mi SSE 8.1 mph - N/A   Overcast
5:17 AM 42.8 °F 38.0 °F - N/A% - 15.0 mi SSE 8.1 mph - N/A Rain Light Rain
5:38 AM 42.8 °F 37.0 °F - N/A% - 15.0 mi South 10.4 mph - N/A   Overcast
6:00 AM 42.8 °F 38.0 °F 39.2 °F 87% 30.06 in 15.0 mi SSE 8.1 mph - N/A   Overcast
6:31 AM 42.8 °F 37.5 °F - N/A% - 15.0 mi South 9.2 mph - N/A Rain Light Rain
7:00 AM 42.8 °F 37.5 °F 39.2 °F 87% 30.05 in 15.0 mi South 9.2 mph 17.3 mph N/A   Overcast
7:27 AM 42.8 °F 37.5 °F - N/A% - 15.0 mi South 9.2 mph - N/A Rain Light Rain
8:00 AM 42.8 °F 37.0 °F 41.0 °F 93% 30.05 in 12.0 mi South 10.4 mph - N/A Rain Light Rain
9:00 AM 42.8 °F 40.1 °F 39.2 °F 87% 30.05 in 12.0 mi South 4.6 mph - N/A Rain Light Rain
10:00 AM 42 °F - 40 °F 89% 30.05 in 12 mi South 12.7 mph - -   Partly Cloudy
10:00 AM 42.8 °F 36.2 °F 39.2 °F 87% 30.05 in 12.0 mi South 12.7 mph 20.7 mph N/A Rain Light Rain
11:00 AM 42.8 °F 41.1 °F 39.2 °F 87% 30.05 in 20.0 mi SSW 3.5 mph - N/A Rain Light Rain
11:27 AM 42.8 °F 41.1 °F - N/A% - 30.0 mi South 3.5 mph - N/A   Overcast
12:00 PM 42.8 °F 41.1 °F 41.0 °F 93% 30.04 in 30.0 mi SSW 3.5 mph - N/A   Mostly Cloudy
1:00 PM 42.8 °F - 39.2 °F 87% 30.04 in 30.0 mi WNW 2.3 mph - N/A   Overcast
2:00 PM 42.8 °F 41.1 °F 39.2 °F 87% 30.03 in 30.0 mi West 3.5 mph - N/A   Overcast
3:00 PM 42.8 °F 40.1 °F 41.0 °F 93% 30.04 in 30.0 mi WNW 4.6 mph - N/A   Mostly Cloudy
3:05 PM 42.8 °F 39.3 °F - N/A% - 30.0 mi NW 5.8 mph - N/A Rain Light Rain
4:00 PM 42 °F - 39 °F 86% 30.05 in 28 mi West 4.6 mph - - Rain Light Rain
4:00 PM 42.8 °F 40.1 °F 39.2 °F 87% 30.05 in 30.0 mi West 4.6 mph - N/A Rain Light Rain
4:29 PM 41.0 °F - - N/A% - 30.0 mi NW 2.3 mph - N/A   Mostly Cloudy
5:00 PM 39.2 °F 35.9 °F 39.2 °F 100% 30.05 in 30.0 mi WSW 4.6 mph - N/A   Mostly Cloudy
6:00 PM 39.2 °F - 39.2 °F 100% 30.06 in 30.0 mi West 2.3 mph - N/A   Mostly Cloudy
7:00 PM 37.4 °F 32.8 °F 37.4 °F 100% 30.06 in 30.0 mi WNW 5.8 mph - N/A   Scattered Clouds
7:16 PM 35.6 °F 30.7 °F - N/A% - 30.0 mi West 5.8 mph - N/A   Scattered Clouds
8:00 PM 37.4 °F 32.8 °F 37.4 °F 100% 30.07 in 30.0 mi WNW 5.8 mph - N/A   Mostly Cloudy
9:00 PM 35.6 °F - 35.6 °F 100% 30.07 in 20.0 mi Calm Calm - N/A   Overcast
10:00 PM 38 °F - 37 °F 94% 30.06 in 28 mi North 2.3 mph - -   Partly Cloudy
10:00 PM 37.4 °F 34.9 °F 37.4 °F 100% 30.06 in 30.0 mi North 3.5 mph - N/A   Overcast
11:00 PM 41.0 °F 34.3 °F 39.2 °F 93% 30.03 in 30.0 mi South 11.5 mph - N/A   Overcast
11:34 PM 42.8 °F 37.5 °F - N/A% - 20.0 mi South 9.2 mph - N/A Rain Light Rain Showers